Tracking 30685 objects as of 17-Jun-2025
HD Live streaming from Space Station
objects crossing your sky now

NOAA 16 DEB

Track NOAA 16 DEB now!
10-day predictions


NORAD ID: 41508
Int'l Code: 2000-055MG
Perigee: 778.9 km
Apogee: 812.9 km
Inclination: 98.8 °
Period: 100.6 minutes
Semi major axis: 7166 km
RCS: Unknown
Launch date: September 21, 2000
Source: United States (US)
Launch site: AIR FORCE WESTERN TEST RANGE (AFWTR)

Note: This is SATELLITE DEBRIS
Your satellite tracking list
Your tracking list is empty




NASA's NSSDC Master Catalog

Two Line Element Set (TLE):
1 41508U 00055MG  25167.15299410  .00002910  00000-0  11225-2 0  9995
2 41508  98.8450 280.3730 0023699 269.3631  90.4835 14.30878724474239
Source of the keplerian elements: AFSPC